[[{"header":{"parameterUnit":"m.s-1","parameterCategory":2,"la1":30.2991,"la2":30.254,"lo1":-89.0895,"lo2":-89.0444,"dy":0.0017,"dx":0.0017,"nx":28,"ny":28,"refTime":"2025-01-26T09:00:00:Z","depth":"0","parameterNumber":2,"parameterNumberName":"U-component_of_CURRENTS"},"data":[0,0,0,0,0,0,0,0,0,0,0,0,0,0,0,0,0,0,0,0,0,0,0,0,0,0,0,0,0,0,0,0,0,0,0,0,0,0,0,0,0,0,0,0,0,0,0,0,0,0,0,0,0,0,0,0,0,0,-0.298,-0.2981,0,-0.3027,-0.3027,-0.3027,-0.3019,-0.3018,-0.3017,-0.3017,-0.3028,-0.3029,-0.303,0,0,0,0,0,0,0,0,0,0,0,0,0,-0.2882,-0.2883,-0.298,-0.2981,-0.2982,-0.3027,-0.3027,-0.3027,-0.3019,-0.3018,-0.3017,-0.3016,-0.3028,-0.3029,-0.303,0,0,0,0,0,0,0,0,0,0,0,0,0,-0.2924,-0.2884,-0.298,-0.2984,-0.2985,-0.3027,-0.3027,-0.3028,-0.3019,-0.3018,-0.3017,-0.3016,-0.3028,-0.3029,-0.303,-0.3056,0,0,-0.3034,-0.3035,0,0,0,0,0,0,0,0,-0.2921,-0.2927,-0.2983,-0.2984,-0.2986,-0.3018,-0.2997,-0.3036,-0.3019,-0.3004,-0.3017,-0.3016,-0.3024,-0.3025,-0.3033,-0.3057,-0.3057,-0.3034,-0.3035,-0.3036,-0.3036,0,0,0,0,0,0,0,-0.2918,-0.2925,-0.2996,-0.2984,-0.2986,-0.2984,-0.2989,-0.3004,-0.3016,-0.3005,-0.3005,-0.3014,-0.3024,-0.3032,-0.3033,-0.3058,-0.3034,-0.3035,-0.3036,-0.3037,-0.3092,-0.3093,0,0,0,0,0,0,-0.2919,-0.2922,-0.2994,-0.2998,-0.2953,-0.2987,-0.2992,-0.3006,-0.3016,-0.3018,-0.3015,-0.3014,-0.303,-0.3032,-0.3034,-0.304,-0.3036,-0.3037,-0.3037,-0.3092,-0.3092,-0.3093,0,0,0,0,0,0,-0.2917,-0.2925,-0.2993,-0.2962,-0.2971,-0.299,-0.3006,-0.3008,-0.3014,-0.3025,-0.3025,-0.3019,-0.3029,-0.3032,-0.3046,-0.3041,-0.3037,-0.3039,-0.3091,-0.3092,-0.3093,-0.3069,0,0,0,0,0,0,-0.2914,-0.2924,-0.293,-0.2963,-0.2973,-0.3014,-0.3007,-0.301,-0.3023,-0.3021,-0.3029,-0.3029,-0.3029,-0.3044,-0.3047,-0.3043,-0.304,-0.309,-0.3091,-0.3092,-0.3069,-0.3069,-0.3069,0,0,0,0,0,-0.291,-0.2919,-0.293,-0.2939,-0.2982,-0.3014,-0.3019,-0.3027,-0.3024,-0.3028,-0.3033,-0.3028,-0.3054,-0.3046,-0.3049,-0.3045,-0.3089,-0.3091,-0.3092,-0.3069,-0.3069,-0.3069,0,0,0,0,0,0,-0.287,-0.292,-0.2933,-0.2954,-0.2983,-0.3014,-0.3017,-0.303,-0.3039,-0.3035,-0.304,-0.3041,-0.3049,-0.306,-0.305,-0.3068,-0.3071,-0.3073,-0.3052,-0.3052,-0.3052,-0.3042,-0.3041,0,0,0,0,0,-0.2869,-0.2888,-0.2936,-0.2948,-0.2965,-0.2994,-0.3006,-0.3018,-0.3036,-0.3038,-0.3045,-0.3054,-0.3061,-0.3066,-0.3076,-0.309,-0.3079,-0.3091,-0.3091,-0.3091,-0.3087,-0.3067,-0.3064,-0.3098,-0.3098,-0.3098,0,0,-0.2854,-0.2884,-0.2893,-0.2941,-0.2961,-0.2989,-0.2997,-0.302,-0.3034,-0.3039,-0.305,-0.3055,-0.3067,-0.3075,-0.308,-0.3081,-0.3077,-0.3093,-0.3093,-0.3089,-0.3068,-0.3064,-0.3061,-0.3099,-0.3099,-0.3099,0,0,-0.2838,-0.2865,-0.2881,-0.2913,-0.2955,-0.2978,-0.2987,-0.3025,-0.3031,-0.3055,-0.3053,-0.3054,-0.308,-0.3075,-0.3078,-0.3091,-0.3078,-0.31,-0.3091,-0.3071,-0.3067,-0.3063,-0.304,-0.3035,-0.31,-0.31,-0.31,0,-0.2819,-0.2849,-0.2887,-0.2916,-0.2937,-0.2974,-0.2996,-0.3016,-0.305,-0.3054,-0.3055,-0.3072,-0.3075,-0.3074,-0.3075,-0.3087,-0.3076,-0.3084,-0.3068,-0.3064,-0.3061,-0.3038,-0.3032,-0.3099,-0.3099,-0.31,-0.31,0,-0.2823,-0.285,-0.286,-0.2911,-0.2939,-0.2961,-0.3006,-0.3024,-0.3038,-0.3054,-0.3059,-0.3063,-0.3069,-0.3071,-0.3076,-0.306,-0.3059,-0.3066,-0.3059,-0.3055,-0.3032,-0.3027,-0.3098,-0.3098,-0.3099,-0.3099,0,0,-0.2764,-0.2848,-0.2848,-0.2874,-0.2938,-0.2959,-0.299,-0.3023,-0.3035,-0.3052,-0.3057,-0.3057,-0.3055,-0.3059,-0.306,-0.3042,-0.3005,-0.3045,-0.3044,-0.3008,-0.2957,-0.2883,-0.287,-0.3007,-0.3006,-0.3006,-0.2947,0,-0.2751,-0.2797,-0.2845,-0.2878,-0.2906,-0.2957,-0.2984,-0.3017,-0.304,-0.3056,-0.3052,-0.3058,-0.3054,-0.3052,-0.3032,-0.3023,-0.2991,-0.302,-0.2979,-0.2978,-0.29,-0.2861,-0.2739,-0.267,-0.2942,-0.2941,-0.294,0,-0.2732,-0.2769,-0.2803,-0.287,-0.2886,-0.291,-0.2954,-0.2986,-0.3023,-0.3041,-0.3044,-0.3053,-0.3037,-0.3032,-0.2988,-0.3009,-0.2975,-0.2958,-0.2955,-0.2889,-0.2892,-0.2721,-0.265,-0.2621,-0.2932,-0.2932,-0.2933,0,-0.266,-0.2732,-0.2753,-0.2778,-0.2863,-0.2877,-0.2915,-0.2965,-0.2991,-0.3025,-0.3041,-0.3035,-0.303,-0.2994,-0.2964,-0.2975,-0.291,-0.2922,-0.2815,-0.2811,-0.2699,-0.2685,-0.258,-0.2864,-0.2864,-0.2864,-0.2865,0,-0.2622,-0.2635,-0.272,-0.2733,-0.2755,-0.283,-0.2854,-0.2897,-0.2953,-0.2973,-0.3017,-0.3021,-0.3019,-0.2993,-0.2958,-0.2864,-0.2899,-0.2794,-0.2781,-0.2688,-0.2674,-0.264,-0.267,-0.2862,-0.2863,-0.2863,-0.2863,0,-0.2533,-0.2594,-0.2622,-0.2702,-0.2722,-0.2733,-0.2816,-0.2835,-0.2906,-0.2932,-0.2942,-0.3,-0.2965,-0.2947,-0.2895,-0.2842,-0.2715,-0.2728,-0.2618,-0.2591,-0.2452,-0.2486,-0.2384,-0.2319,-0.259,-0.2588,-0.2586,0,-0.2492,-0.2497,-0.2573,-0.2582,-0.2613,-0.2653,-0.2678,-0.2782,-0.2813,-0.2906,-0.2906,-0.2913,-0.2872,-0.2783,-0.2706,-0.2607,-0.2613,-0.2446,-0.2431,-0.2403,-0.2433,-0.2467,-0.2423,-0.2279,-0.2275,-0.2271,-0.2268,0,-0.2395,-0.2422,-0.2444,-0.247,-0.2495,-0.2532,-0.2583,-0.261,-0.2725,-0.2752,-0.2772,-0.2748,-0.2691,-0.2542,-0.2444,-0.2378,-0.2378,-0.2369,-0.2361,-0.2186,-0.2193,-0.2138,-0.2375,-0.2237,-0.224,-0.2242,-0.2244,-0.2245,-0.2301,-0.2291,-0.232,-0.2329,-0.2361,-0.2375,-0.237,-0.244,-0.2464,-0.2486,-0.2565,-0.2491,-0.2415,-0.225,-0.2188,-0.205,-0.2134,-0.1982,-0.2029,-0.2068,-0.1987,-0.2151,-0.1989,-0.199,-0.1992,-0.1993,-0.1994,0,-0.2168,-0.217,-0.2176,-0.2185,-0.2159,-0.2228,-0.2272,-0.225,-0.2229,-0.2264,-0.2246,-0.2152,-0.1996,-0.1954,-0.1829,-0.1739,-0.1712,-0.171,-0.173,-0.1702,-0.1842,-0.1809,-0.1573,-0.1573,-0.1573,-0.1573,-0.1573,-0.1573,-0.2097,-0.2049,-0.2054,-0.1966,-0.1971,-0.1921,-0.1919,-0.1906,-0.1913,-0.1828,-0.1798,-0.1801,-0.1763,-0.1833,-0.1688,-0.1603,-0.1577,-0.1523,-0.1574,-0.1687,-0.1717,-0.1745,-0.1718,-0.1466,-0.1466,-0.1354,-0.1353,-0.1352]},{"header":{"parameterUnit":"m.s-1","parameterCategory":2,"la1":30.2991,"la2":30.254,"lo1":-89.0895,"lo2":-89.0444,"dy":0.0017,"dx":0.0017,"nx":28,"ny":28,"refTime":"2025-01-26T09:00:00:Z","depth":"0","parameterNumber":3,"parameterNumberName":"V-component_of_CURRENTS"},"data":[0,0,0,0,0,0,0,0,0,0,0,0,0,0,0,0,0,0,0,0,0,0,0,0,0,0,0,0,0,0,0,0,0,0,0,0,0,0,0,0,0,0,0,0,0,0,0,0,0,0,0,0,0,0,0,0,0,0,-0.0216,-0.0216,0,-0.0117,-0.0116,-0.0115,-0.0039,-0.0039,-0.0038,-0.0038,0.0095,0.0098,0.0101,0,0,0,0,0,0,0,0,0,0,0,0,0,-0.029,-0.0289,-0.0217,-0.0216,-0.0214,-0.0118,-0.0116,-0.0115,-0.004,-0.0039,-0.0038,-0.0038,0.0094,0.0098,0.0101,0,0,0,0,0,0,0,0,0,0,0,0,0,-0.023,-0.0289,-0.0217,-0.0167,-0.0161,-0.0118,-0.0116,-0.0114,-0.004,-0.0039,-0.0038,-0.0037,0.0093,0.0097,0.0102,0.0113,0,0,0.0116,0.0118,0,0,0,0,0,0,0,0,-0.0233,-0.0227,-0.0175,-0.017,-0.0164,-0.0091,-0.0093,-0.0037,-0.004,-0.0084,-0.0038,-0.0037,0.0034,0.0044,0.0062,0.012,0.0125,0.0116,0.0119,0.0121,0.0122,0,0,0,0,0,0,0,-0.0238,-0.023,-0.0176,-0.0174,-0.0167,-0.0131,-0.0122,-0.0082,-0.0029,-0.008,-0.0075,-0.0067,0.0038,0.0058,0.0066,0.0127,0.0116,0.012,0.0123,0.0125,0.0229,0.0229,0,0,0,0,0,0,-0.0257,-0.0235,-0.0179,-0.0173,-0.0199,-0.0131,-0.0121,-0.0114,-0.003,-0.0017,-0.0068,-0.0064,0.005,0.0061,0.0071,0.0097,0.0121,0.0125,0.0128,0.0228,0.0229,0.0229,0,0,0,0,0,0,-0.0259,-0.0253,-0.0183,-0.0203,-0.0191,-0.0131,-0.0124,-0.0113,-0.0092,-0.0021,-0.0007,-0.0059,0.0051,0.0065,0.0103,0.0103,0.0127,0.0131,0.0228,0.0228,0.0229,0.0145,0,0,0,0,0,0,-0.0261,-0.0254,-0.0258,-0.0204,-0.0191,-0.0166,-0.0125,-0.0111,-0.0089,-0.0083,-0.0009,0.0005,0.0052,0.0095,0.0107,0.0109,0.0135,0.0228,0.0228,0.0229,0.0147,0.0142,0.0137,0,0,0,0,0,-0.0264,-0.0274,-0.0259,-0.0252,-0.0198,-0.0166,-0.0157,-0.0109,-0.009,-0.0087,-0.0037,0.0002,0.0105,0.0099,0.0113,0.0116,0.0228,0.0228,0.0229,0.015,0.0143,0.0137,0,0,0,0,0,0,-0.0308,-0.0266,-0.0248,-0.0245,-0.0213,-0.0154,-0.0149,-0.0118,-0.0076,-0.007,-0.0002,0.0014,0.0047,0.0092,0.0084,0.0148,0.0175,0.0178,0.011,0.0105,0.01,0.0088,0.0139,0,0,0,0,0,-0.0323,-0.0319,-0.0272,-0.0272,-0.0259,-0.0207,-0.0189,-0.0158,-0.0114,-0.0094,-0.0043,0.0013,0.0058,0.0088,0.0131,0.0164,0.0209,0.0178,0.0173,0.0168,0.0169,0.0222,0.0222,0.0229,0.0229,0.0229,0,0,-0.034,-0.0317,-0.0315,-0.0281,-0.0252,-0.0243,-0.0194,-0.0174,-0.0161,-0.0087,-0.0058,-0.001,0.006,0.0095,0.0116,0.0135,0.0191,0.0168,0.0163,0.0167,0.0222,0.0221,0.0221,0.0229,0.0229,0.0229,0,0,-0.0379,-0.0355,-0.0366,-0.0344,-0.0309,-0.0275,-0.0274,-0.0221,-0.0192,-0.0161,-0.0105,-0.0058,0.001,0.0064,0.0099,0.0093,0.0154,0.0108,0.0082,0.0133,0.0132,0.0133,0.0188,0.0194,0.0114,0.0114,0.0114,0,-0.0404,-0.0408,-0.0365,-0.0368,-0.0358,-0.0296,-0.0305,-0.0266,-0.0207,-0.0185,-0.0163,-0.0057,-0.0002,0.0053,0.0055,0.0081,0.012,0.0095,0.0125,0.0126,0.0128,0.0184,0.0192,0.011,0.011,0.0111,0.0111,0,-0.0445,-0.045,-0.0455,-0.0439,-0.0421,-0.0419,-0.0364,-0.0341,-0.03,-0.0253,-0.0198,-0.012,-0.0053,-0.0027,0.0014,0.0057,0.0082,0.0101,0.0134,0.0121,0.0183,0.0192,0.0104,0.0106,0.0107,0.0108,0,0,-0.0498,-0.0489,-0.0491,-0.0501,-0.0459,-0.0451,-0.0429,-0.0388,-0.0371,-0.0303,-0.027,-0.0184,-0.0134,-0.009,-0.0028,0.0025,0.0072,0.0064,0.0069,0.0109,0.0187,0.0247,0.0264,0.009,0.0091,0.0092,0.0224,0,-0.0546,-0.0583,-0.0553,-0.058,-0.0594,-0.0535,-0.052,-0.0472,-0.0414,-0.0365,-0.0268,-0.0215,-0.0158,-0.0127,-0.0066,0.0038,0.0092,0.0035,0.0203,0.0209,0.0255,0.0275,0.0312,0.0436,0.0233,0.0235,0.0236,0,-0.0595,-0.0615,-0.0656,-0.0658,-0.0656,-0.0656,-0.0619,-0.0595,-0.0504,-0.0457,-0.0378,-0.0298,-0.0198,-0.0157,0.0015,-0.0027,0.007,0.0151,0.0158,0.0251,0.0287,0.0419,0.0461,0.0598,0.0251,0.025,0.0249,0,-0.0663,-0.0684,-0.0724,-0.0724,-0.0712,-0.0713,-0.0697,-0.0626,-0.0602,-0.051,-0.0476,-0.0349,-0.0273,-0.0147,0.0038,0.0021,0.0229,0.0228,0.0376,0.0381,0.0467,0.0478,0.0655,0.034,0.0339,0.0339,0.0339,0,-0.0727,-0.0757,-0.0761,-0.0785,-0.0825,-0.0783,-0.0794,-0.0753,-0.0685,-0.0648,-0.053,-0.0458,-0.0268,-0.0117,0.0026,0.0247,0.0227,0.0382,0.0424,0.0439,0.0446,0.0614,0.0662,0.0344,0.0343,0.0342,0.0341,0,-0.0795,-0.0797,-0.0847,-0.0857,-0.0861,-0.0887,-0.087,-0.0865,-0.0793,-0.0739,-0.0711,-0.0529,-0.0319,-0.0116,0.0122,0.0246,0.0537,0.0516,0.0528,0.0568,0.0811,0.0852,0.1081,0.1167,0.0686,0.0689,0.0691,0,-0.0833,-0.0866,-0.0911,-0.0944,-0.0952,-0.0976,-0.0987,-0.093,-0.091,-0.0767,-0.0739,-0.0525,-0.0338,0.0039,0.0295,0.0567,0.0666,0.0744,0.0719,0.0847,0.0923,0.0949,0.1005,0.0801,0.0804,0.0806,0.0808,0,-0.0902,-0.0915,-0.0956,-0.1031,-0.1062,-0.109,-0.1091,-0.1091,-0.0998,-0.0908,-0.0733,-0.0568,-0.0191,0.016,0.0507,0.0667,0.0852,0.0798,0.0934,0.1038,0.1076,0.117,0.069,0.0828,0.0826,0.0825,0.0823,0.0823,-0.0943,-0.0992,-0.1045,-0.1108,-0.1149,-0.1177,-0.1176,-0.113,-0.1057,-0.0868,-0.0728,-0.0413,0.0029,0.0541,0.0721,0.1087,0.1042,0.1186,0.1229,0.1245,0.1324,0.089,0.1068,0.1068,0.1067,0.1067,0.1067,0,-0.0987,-0.1039,-0.1114,-0.118,-0.1227,-0.1228,-0.1218,-0.1145,-0.1019,-0.0804,-0.0579,-0.0046,0.0405,0.0802,0.1293,0.1495,0.1528,0.1595,0.1636,0.1674,0.1305,0.1304,0.1538,0.1538,0.1538,0.1538,0.1538,0.1538,-0.1011,-0.109,-0.113,-0.1218,-0.1259,-0.1258,-0.1235,-0.106,-0.0875,-0.0472,-0.0135,0.0125,0.0643,0.1375,0.1826,0.1873,0.2032,0.2032,0.2114,0.1846,0.181,0.1776,0.1789,0.2121,0.2122,0.2469,0.2473,0.2475]}],[{"header":{"parameterUnit":"m.s-1","parameterCategory":2,"la1":30.2991,"la2":30.254,"lo1":-89.0895,"lo2":-89.0444,"dy":0.0017,"dx":0.0017,"nx":28,"ny":28,"refTime":"2025-01-26T09:00:00:Z","depth":"2","parameterNumber":2,"parameterNumberName":"U-component_of_CURRENTS"},"data":[0,0,0,0,0,0,0,0,0,0,0,0,0,0,0,0,0,0,0,0,0,0,0,0,0,0,0,0,0,0,0,0,0,0,0,0,0,0,0,0,0,0,0,0,0,0,0,0,0,0,0,0,0,0,0,0,0,0,-0.2598,-0.2599,0,-0.2647,-0.2647,-0.2647,-0.2647,-0.2646,-0.2646,-0.2646,-0.2669,-0.267,-0.2671,0,0,0,0,0,0,0,0,0,0,0,0,0,-0.2509,-0.2511,-0.2598,-0.2599,-0.26,-0.2647,-0.2647,-0.2648,-0.2647,-0.2646,-0.2646,-0.2645,-0.2668,-0.2669,-0.2671,0,0,0,0,0,0,0,0,0,0,0,0,0,-0.255,-0.2511,-0.2598,-0.2606,-0.2608,-0.2646,-0.2647,-0.2648,-0.2647,-0.2646,-0.2646,-0.2645,-0.2668,-0.2669,-0.2671,-0.2695,0,0,-0.2676,-0.2676,0,0,0,0,0,0,0,0,-0.2548,-0.2553,-0.2604,-0.2606,-0.2607,-0.2642,-0.2624,-0.2663,-0.2647,-0.263,-0.2645,-0.2645,-0.2659,-0.2661,-0.267,-0.2696,-0.2697,-0.2676,-0.2677,-0.2678,-0.2678,0,0,0,0,0,0,0,-0.2545,-0.2551,-0.2615,-0.2605,-0.2607,-0.2609,-0.2614,-0.2632,-0.2646,-0.2632,-0.2632,-0.2641,-0.2659,-0.2668,-0.267,-0.2698,-0.2676,-0.2677,-0.2678,-0.2679,-0.2736,-0.2737,0,0,0,0,0,0,-0.2544,-0.2549,-0.2614,-0.2617,-0.2577,-0.2612,-0.2617,-0.263,-0.2647,-0.2649,-0.2641,-0.2641,-0.2666,-0.2668,-0.2671,-0.2687,-0.2678,-0.2679,-0.268,-0.2736,-0.2737,-0.2737,0,0,0,0,0,0,-0.2541,-0.2549,-0.2612,-0.2585,-0.2593,-0.2614,-0.2629,-0.2631,-0.2642,-0.2654,-0.2656,-0.265,-0.2665,-0.2669,-0.269,-0.2689,-0.268,-0.2681,-0.2735,-0.2736,-0.2737,-0.2729,0,0,0,0,0,0,-0.2539,-0.2548,-0.2555,-0.2585,-0.2595,-0.2634,-0.263,-0.2633,-0.2649,-0.2649,-0.2663,-0.2664,-0.2665,-0.2687,-0.2691,-0.2691,-0.2682,-0.2735,-0.2736,-0.2737,-0.2728,-0.2729,-0.273,0,0,0,0,0,-0.2536,-0.2544,-0.2555,-0.2563,-0.2604,-0.2634,-0.2639,-0.265,-0.2651,-0.2657,-0.2668,-0.2663,-0.2696,-0.269,-0.2694,-0.2694,-0.2734,-0.2735,-0.2737,-0.2728,-0.2729,-0.273,0,0,0,0,0,0,-0.2502,-0.2546,-0.2558,-0.2578,-0.2606,-0.2635,-0.2641,-0.2655,-0.267,-0.2669,-0.2677,-0.2679,-0.2695,-0.2702,-0.2694,-0.2714,-0.2713,-0.2715,-0.2705,-0.2706,-0.2707,-0.2698,-0.2684,0,0,0,0,0,-0.2502,-0.2519,-0.2562,-0.2574,-0.259,-0.2619,-0.2632,-0.2646,-0.2665,-0.2671,-0.2683,-0.2695,-0.2705,-0.2711,-0.2723,-0.2741,-0.2729,-0.2743,-0.2744,-0.2744,-0.2742,-0.2726,-0.2725,-0.2741,-0.2741,-0.2741,0,0,-0.2491,-0.2517,-0.2526,-0.2569,-0.2589,-0.2616,-0.2624,-0.2648,-0.2665,-0.2672,-0.2693,-0.2701,-0.2712,-0.2725,-0.2732,-0.273,-0.2733,-0.2746,-0.2746,-0.2743,-0.2727,-0.2725,-0.2723,-0.2742,-0.2742,-0.2742,0,0,-0.2479,-0.2504,-0.2518,-0.2547,-0.2587,-0.261,-0.2619,-0.2658,-0.2667,-0.2697,-0.2699,-0.2706,-0.2735,-0.2732,-0.2737,-0.2753,-0.2739,-0.276,-0.2756,-0.2741,-0.2739,-0.2737,-0.2714,-0.271,-0.2759,-0.2759,-0.2759,0,-0.2464,-0.2492,-0.2524,-0.2551,-0.2573,-0.2609,-0.2632,-0.2653,-0.2691,-0.2699,-0.2702,-0.2729,-0.2734,-0.274,-0.2742,-0.2752,-0.2742,-0.2749,-0.274,-0.2738,-0.2736,-0.2713,-0.2709,-0.2759,-0.2759,-0.2759,-0.2759,0,-0.2469,-0.2495,-0.2505,-0.2553,-0.258,-0.2603,-0.2647,-0.2669,-0.2688,-0.2707,-0.2722,-0.273,-0.2741,-0.2744,-0.2748,-0.2741,-0.2737,-0.2742,-0.2732,-0.2734,-0.271,-0.2705,-0.2759,-0.2759,-0.2759,-0.2759,0,0,-0.2419,-0.2495,-0.2496,-0.2522,-0.2584,-0.2606,-0.264,-0.2677,-0.2694,-0.2717,-0.2731,-0.2738,-0.2739,-0.2744,-0.2746,-0.2733,-0.2706,-0.2732,-0.2732,-0.27,-0.2667,-0.2597,-0.2585,-0.2709,-0.2709,-0.2708,-0.2652,0,-0.241,-0.2455,-0.2497,-0.2535,-0.2563,-0.2613,-0.2642,-0.2679,-0.2708,-0.2731,-0.2733,-0.2748,-0.2742,-0.2746,-0.273,-0.2724,-0.2696,-0.272,-0.2679,-0.2677,-0.2607,-0.2578,-0.239,-0.2318,-0.2648,-0.2647,-0.2647,0,-0.2394,-0.2431,-0.2468,-0.2535,-0.2551,-0.2578,-0.2629,-0.2663,-0.2706,-0.2728,-0.274,-0.2752,-0.2745,-0.2738,-0.2702,-0.2721,-0.2687,-0.2671,-0.2668,-0.2602,-0.2599,-0.2373,-0.2298,-0.2639,-0.264,-0.264,-0.2641,0,-0.2335,-0.2404,-0.2431,-0.2455,-0.2538,-0.2557,-0.2596,-0.2651,-0.2679,-0.2722,-0.2742,-0.2745,-0.2745,-0.2714,-0.2684,-0.2694,-0.2637,-0.2647,-0.2544,-0.2539,-0.2368,-0.2349,-0.2596,-0.2596,-0.2596,-0.2596,-0.2596,0,-0.2305,-0.2323,-0.2405,-0.2421,-0.2449,-0.2521,-0.2552,-0.2596,-0.2656,-0.2677,-0.2727,-0.2732,-0.2738,-0.2716,-0.2681,-0.2594,-0.2629,-0.2527,-0.2513,-0.236,-0.2342,-0.262,-0.2623,-0.2594,-0.2594,-0.2595,-0.2595,0,-0.223,-0.2288,-0.2321,-0.2401,-0.2422,-0.244,-0.2523,-0.2543,-0.2617,-0.2646,-0.2659,-0.2715,-0.2684,-0.2672,-0.2625,-0.2576,-0.2513,-0.2468,-0.2286,-0.2251,-0.2425,-0.2429,-0.2345,-0.2342,-0.234,-0.2338,-0.2336,0,-0.2194,-0.2205,-0.2282,-0.2295,-0.2327,-0.2372,-0.2398,-0.2499,-0.2528,-0.2618,-0.2616,-0.2628,-0.2585,-0.2507,-0.2433,-0.2342,-0.2425,-0.2126,-0.2104,-0.2401,-0.2397,-0.2405,-0.2413,-0.1873,-0.1868,-0.1863,-0.186,0,-0.2113,-0.2142,-0.2167,-0.2197,-0.2224,-0.2261,-0.2312,-0.2332,-0.2439,-0.2463,-0.2472,-0.2448,-0.2396,-0.2221,-0.2137,-0.2066,-0.2133,-0.2032,-0.2368,-0.1977,-0.1954,-0.1951,-0.1974,-0.182,-0.1824,-0.1827,-0.1829,-0.183,-0.2032,-0.2027,-0.2058,-0.2071,-0.2103,-0.2111,-0.2087,-0.2151,-0.2163,-0.2154,-0.2246,-0.214,-0.2129,-0.1886,-0.1791,-0.1727,-0.1873,-0.1786,-0.18,-0.1819,-0.1786,-0.176,-0.1582,-0.1585,-0.1587,-0.1589,-0.1591,0,-0.1917,-0.192,-0.1928,-0.1936,-0.1908,-0.1975,-0.1989,-0.1926,-0.1872,-0.1898,-0.1863,-0.165,-0.1541,-0.1539,-0.1372,-0.1347,-0.1339,-0.1296,-0.1282,-0.1321,-0.1357,-0.1301,-0.0969,-0.0967,-0.0965,-0.0964,0,0,-0.1855,-0.1812,-0.1813,-0.1725,-0.1726,-0.1629,-0.1596,-0.1517,-0.1485,-0.1369,-0.1314,-0.1425,-0.1464,-0.1208,-0.1159,-0.103,-0.1161,-0.0977,-0.1473,-0.1492,-0.1526,-0.1632,-0.159,0,0,0,0,0]},{"header":{"parameterUnit":"m.s-1","parameterCategory":2,"la1":30.2991,"la2":30.254,"lo1":-89.0895,"lo2":-89.0444,"dy":0.0017,"dx":0.0017,"nx":28,"ny":28,"refTime":"2025-01-26T09:00:00:Z","depth":"2","parameterNumber":3,"parameterNumberName":"V-component_of_CURRENTS"},"data":[0,0,0,0,0,0,0,0,0,0,0,0,0,0,0,0,0,0,0,0,0,0,0,0,0,0,0,0,0,0,0,0,0,0,0,0,0,0,0,0,0,0,0,0,0,0,0,0,0,0,0,0,0,0,0,0,0,0,-0.0292,-0.0291,0,-0.0206,-0.0205,-0.0204,-0.0137,-0.0137,-0.0136,-0.0136,-0.0021,-0.0019,-0.0016,0,0,0,0,0,0,0,0,0,0,0,0,0,-0.0351,-0.0351,-0.0292,-0.0291,-0.029,-0.0207,-0.0205,-0.0204,-0.0138,-0.0137,-0.0136,-0.0136,-0.0022,-0.0019,-0.0016,0,0,0,0,0,0,0,0,0,0,0,0,0,-0.03,-0.035,-0.0292,-0.0248,-0.0243,-0.0207,-0.0205,-0.0203,-0.0138,-0.0137,-0.0136,-0.0135,-0.0023,-0.0019,-0.0016,-0.0007,0,0,-0.0004,-0.0002,0,0,0,0,0,0,0,0,-0.0303,-0.0298,-0.0255,-0.0251,-0.0246,-0.0183,-0.0184,-0.0137,-0.0138,-0.0176,-0.0136,-0.0135,-0.0074,-0.0066,-0.005,-0.0001,0.0003,-0.0003,-0.0001,0.0001,0.0002,0,0,0,0,0,0,0,-0.0307,-0.0301,-0.0256,-0.0255,-0.0249,-0.0217,-0.0209,-0.0175,-0.0129,-0.0173,-0.0168,-0.0161,-0.0071,-0.0054,-0.0047,0.0005,-0.0003,-0.0,0.0002,0.0004,0.0082,0.0082,0,0,0,0,0,0,-0.0324,-0.0305,-0.0259,-0.0254,-0.0275,-0.0216,-0.0208,-0.0203,-0.013,-0.0118,-0.0162,-0.0158,-0.0061,-0.0051,-0.0042,-0.0022,0.0001,0.0004,0.0006,0.0082,0.0082,0.0081,0,0,0,0,0,0,-0.0325,-0.0321,-0.0263,-0.0278,-0.0269,-0.0217,-0.0211,-0.0201,-0.0183,-0.0122,-0.011,-0.0154,-0.006,-0.0048,-0.0016,-0.0017,0.0006,0.0009,0.0082,0.0082,0.0082,0.0016,0,0,0,0,0,0,-0.0328,-0.0322,-0.0326,-0.028,-0.0269,-0.025,-0.0212,-0.02,-0.0181,-0.0175,-0.0111,-0.01,-0.0058,-0.0022,-0.0012,-0.0011,0.0013,0.0083,0.0082,0.0082,0.0018,0.0013,0.0009,0,0,0,0,0,-0.033,-0.0341,-0.0327,-0.0321,-0.0276,-0.025,-0.0242,-0.0201,-0.0182,-0.018,-0.0136,-0.0102,-0.0018,-0.002,-0.0008,-0.0006,0.0083,0.0082,0.0082,0.002,0.0014,0.0009,0,0,0,0,0,0,-0.037,-0.0334,-0.0318,-0.0317,-0.029,-0.024,-0.0236,-0.0208,-0.0172,-0.0166,-0.0107,-0.0092,-0.0067,-0.0029,-0.0033,0.0015,0.0039,0.0041,-0.0012,-0.0017,-0.0022,-0.0029,0.0016,0,0,0,0,0,-0.0382,-0.0381,-0.0341,-0.0342,-0.0332,-0.0286,-0.0271,-0.0244,-0.0206,-0.0188,-0.0144,-0.0097,-0.006,-0.0034,-0.0,0.0027,0.007,0.0037,0.0032,0.0028,0.003,0.0087,0.0088,0.008,0.008,0.008,0,0,-0.0399,-0.038,-0.0378,-0.0351,-0.0326,-0.0318,-0.0274,-0.0259,-0.0247,-0.0183,-0.0157,-0.0118,-0.006,-0.0032,-0.0015,0.0002,0.0052,0.0027,0.0023,0.0028,0.0087,0.0088,0.0088,0.0079,0.0079,0.0079,0,0,-0.0435,-0.0415,-0.0425,-0.0407,-0.0377,-0.0348,-0.0348,-0.0302,-0.0276,-0.025,-0.0201,-0.0161,-0.0107,-0.006,-0.003,-0.0039,0.0017,-0.0031,-0.005,0.0005,0.0006,0.0008,0.0058,0.0065,-0.0025,-0.0025,-0.0025,0,-0.0457,-0.0462,-0.0425,-0.0429,-0.0419,-0.0366,-0.0374,-0.0341,-0.0291,-0.0268,-0.0252,-0.0163,-0.0117,-0.0067,-0.0069,-0.0049,-0.0012,-0.0035,-0.0001,0.0002,0.0005,0.0056,0.0064,-0.0028,-0.0028,-0.0027,-0.0027,0,-0.0496,-0.0499,-0.0505,-0.0491,-0.0476,-0.0475,-0.0428,-0.0407,-0.0371,-0.033,-0.028,-0.0216,-0.0157,-0.0138,-0.0104,-0.0061,-0.004,-0.0022,0.0011,0.0001,0.0056,0.0066,-0.0033,-0.0031,-0.003,-0.003,0,0,-0.0545,-0.0536,-0.0537,-0.0543,-0.0509,-0.0502,-0.0483,-0.0444,-0.0426,-0.0369,-0.0334,-0.0265,-0.022,-0.0184,-0.0132,-0.0079,-0.0029,-0.0046,-0.0042,0.0,0.009,0.012,0.0134,-0.0007,-0.0005,-0.0004,0.0118,0,-0.0586,-0.0617,-0.0592,-0.0613,-0.0624,-0.0571,-0.0558,-0.0514,-0.0463,-0.0417,-0.0331,-0.0285,-0.0239,-0.0212,-0.0152,-0.0062,-0.0005,-0.0064,0.0097,0.0102,0.0127,0.0146,0.0113,0.0221,0.0128,0.013,0.0131,0,-0.063,-0.0645,-0.068,-0.0676,-0.0674,-0.0675,-0.0638,-0.0617,-0.0532,-0.049,-0.0417,-0.0347,-0.0256,-0.0223,-0.0063,-0.0104,-0.0014,0.0058,0.0065,0.0125,0.0151,0.0218,0.0243,0.0148,0.0147,0.0146,0.0144,0,-0.0689,-0.0703,-0.0735,-0.0735,-0.0721,-0.0721,-0.0706,-0.0642,-0.062,-0.0532,-0.0501,-0.0383,-0.0321,-0.0196,-0.0039,-0.0052,0.0139,0.0143,0.0258,0.0261,0.0283,0.0285,0.0256,0.0256,0.0256,0.0255,0.0255,0,-0.0743,-0.0766,-0.0768,-0.0788,-0.082,-0.0782,-0.0789,-0.0752,-0.0689,-0.066,-0.0545,-0.0487,-0.0313,-0.0178,-0.0045,0.0145,0.0141,0.0264,0.03,0.0258,0.0257,0.0232,0.0228,0.026,0.0259,0.0258,0.0257,0,-0.0801,-0.0801,-0.0841,-0.0848,-0.0852,-0.0874,-0.086,-0.0856,-0.0788,-0.0744,-0.0719,-0.0558,-0.0378,-0.0192,0.0026,0.0138,0.0312,0.0379,0.0318,0.0344,0.0396,0.0387,0.0514,0.0516,0.0518,0.052,0.0521,0,-0.0833,-0.0861,-0.0898,-0.0929,-0.0936,-0.0957,-0.0969,-0.0917,-0.0902,-0.0781,-0.0759,-0.0577,-0.0429,-0.0093,0.0134,0.0383,0.0381,0.0487,0.0461,0.0404,0.0426,0.0413,0.0402,0.0463,0.0464,0.0465,0.0465,0,-0.0893,-0.0905,-0.0939,-0.1009,-0.104,-0.1067,-0.1071,-0.1075,-0.0996,-0.0927,-0.0794,-0.0663,-0.0339,-0.0063,0.0251,0.039,0.0443,0.0508,0.0484,0.0396,0.0365,0.0382,0.0372,0.047,0.047,0.0469,0.0469,0.0469,-0.093,-0.0974,-0.1021,-0.1081,-0.1123,-0.1157,-0.1168,-0.114,-0.1093,-0.0964,-0.0833,-0.0597,-0.0348,0.0112,0.033,0.0533,0.0525,0.057,0.0565,0.056,0.0526,0.0498,0.0623,0.0623,0.0624,0.0624,0.0624,0,-0.0972,-0.1019,-0.1088,-0.1154,-0.1207,-0.1208,-0.1217,-0.1193,-0.1122,-0.0961,-0.0795,-0.049,-0.0168,0.0103,0.0425,0.0606,0.0584,0.0635,0.0563,0.0557,0.0552,0.0513,0.061,0.061,0.0611,0.0611,0,0,-0.0995,-0.1067,-0.1104,-0.1201,-0.1246,-0.128,-0.1278,-0.1217,-0.1095,-0.092,-0.0723,-0.0477,-0.0149,0.0072,0.0297,0.0467,0.0464,0.0483,0.0475,0.0357,0.0349,0.0495,0.0428,0,0,0,0,0]}],[{"header":{"parameterUnit":"m.s-1","parameterCategory":2,"la1":30.2991,"la2":30.254,"lo1":-89.0895,"lo2":-89.0444,"dy":0.0017,"dx":0.0017,"nx":28,"ny":28,"refTime":"2025-01-26T09:00:00:Z","depth":"4","parameterNumber":2,"parameterNumberName":"U-component_of_CURRENTS"},"data":[0,0,0,0,0,0,0,0,0,0,0,0,0,0,0,0,0,0,0,0,0,0,0,0,0,0,0,0,0,0,0,0,0,0,0,0,0,0,0,0,0,0,0,0,0,0,0,0,0,0,0,0,0,0,0,0,0,0,-0.1828,-0.1829,0,-0.1909,-0.191,-0.1911,-0.1969,-0.1969,-0.197,-0.197,-0.2068,-0.207,-0.2072,0,0,0,0,0,0,0,0,0,0,0,0,0,-0.1722,-0.1723,-0.1828,-0.1829,-0.183,-0.1909,-0.191,-0.1911,-0.1969,-0.1969,-0.197,-0.1971,-0.2067,-0.2069,-0.2072,0,0,0,0,0,0,0,0,0,0,0,0,0,-0.1781,-0.1724,-0.1827,-0.1869,-0.1873,-0.1909,-0.191,-0.1911,-0.1969,-0.1969,-0.197,-0.1971,-0.2066,-0.2069,-0.2072,-0.2075,0,0,-0.2082,-0.2083,0,0,0,0,0,0,0,0,-0.1778,-0.1785,-0.1862,-0.1866,-0.1871,-0.1931,-0.1909,-0.1967,-0.1968,-0.1931,-0.197,-0.1971,-0.2023,-0.203,-0.2042,-0.2079,-0.2083,-0.2082,-0.2084,-0.2085,-0.2086,0,0,0,0,0,0,0,-0.1773,-0.1782,-0.1859,-0.1863,-0.1869,-0.1884,-0.1893,-0.192,-0.1971,-0.1935,-0.1939,-0.195,-0.2026,-0.2039,-0.2045,-0.2085,-0.2082,-0.2085,-0.2087,-0.2088,-0.2197,-0.2198,0,0,0,0,0,0,-0.1765,-0.1778,-0.1856,-0.1861,-0.1827,-0.1885,-0.1895,-0.191,-0.1971,-0.1981,-0.1949,-0.1952,-0.2033,-0.2041,-0.2048,-0.2117,-0.2085,-0.2088,-0.209,-0.2196,-0.2197,-0.2198,0,0,0,0,0,0,-0.1762,-0.1771,-0.1853,-0.1822,-0.1834,-0.1886,-0.1902,-0.1911,-0.1957,-0.1982,-0.1992,-0.1989,-0.2034,-0.2044,-0.2101,-0.2119,-0.209,-0.2092,-0.2195,-0.2196,-0.2198,-0.2214,0,0,0,0,0,0,-0.1759,-0.177,-0.1792,-0.1821,-0.1835,-0.1891,-0.1902,-0.1912,-0.196,-0.1966,-0.2019,-0.2027,-0.2035,-0.2096,-0.2104,-0.2122,-0.2095,-0.2193,-0.2195,-0.2197,-0.2212,-0.2216,-0.2219,0,0,0,0,0,-0.1755,-0.1773,-0.1793,-0.1803,-0.186,-0.1892,-0.19,-0.1939,-0.1962,-0.1983,-0.2023,-0.2027,-0.2113,-0.21,-0.2109,-0.2128,-0.2193,-0.2195,-0.2197,-0.2211,-0.2215,-0.2219,0,0,0,0,0,0,-0.1739,-0.1782,-0.1804,-0.1836,-0.1871,-0.1902,-0.193,-0.1957,-0.2006,-0.2023,-0.2046,-0.2057,-0.211,-0.2121,-0.2105,-0.2165,-0.2151,-0.2155,-0.2159,-0.2163,-0.2167,-0.2156,-0.2097,0,0,0,0,0,-0.1745,-0.1774,-0.1813,-0.1842,-0.1861,-0.1903,-0.1928,-0.1956,-0.1995,-0.202,-0.2057,-0.2093,-0.212,-0.2145,-0.2171,-0.221,-0.2196,-0.2227,-0.2231,-0.2234,-0.2232,-0.2226,-0.2228,-0.2206,-0.2206,-0.2206,0,0,-0.1748,-0.1775,-0.1794,-0.1841,-0.1873,-0.1905,-0.1921,-0.1967,-0.2001,-0.2021,-0.2088,-0.2112,-0.2134,-0.2175,-0.2199,-0.2191,-0.2232,-0.2237,-0.2239,-0.2235,-0.2228,-0.223,-0.2232,-0.2208,-0.2207,-0.2207,0,0,-0.1752,-0.1792,-0.1816,-0.1849,-0.1902,-0.1926,-0.1947,-0.1999,-0.2033,-0.2092,-0.211,-0.2145,-0.2204,-0.2211,-0.2223,-0.2263,-0.2251,-0.228,-0.2291,-0.2286,-0.2287,-0.2288,-0.2266,-0.2265,-0.2281,-0.2281,-0.2281,0,-0.1758,-0.1792,-0.1828,-0.1859,-0.189,-0.1939,-0.1972,-0.2009,-0.2076,-0.2101,-0.212,-0.2193,-0.2214,-0.2242,-0.2256,-0.2269,-0.2262,-0.2272,-0.2288,-0.2289,-0.229,-0.2267,-0.2266,-0.2282,-0.2282,-0.2282,-0.2282,0,-0.177,-0.1814,-0.1831,-0.1887,-0.1924,-0.1962,-0.2012,-0.206,-0.2109,-0.214,-0.2197,-0.2224,-0.2261,-0.2273,-0.228,-0.2299,-0.229,-0.2291,-0.2272,-0.2292,-0.2268,-0.2266,-0.2284,-0.2283,-0.2283,-0.2283,0,0,-0.1737,-0.1825,-0.1834,-0.1871,-0.1946,-0.1973,-0.2033,-0.2089,-0.2129,-0.2187,-0.2229,-0.2269,-0.2285,-0.2298,-0.2309,-0.2308,-0.2304,-0.2308,-0.2307,-0.2276,-0.2285,-0.2145,-0.213,-0.2312,-0.2312,-0.2312,-0.2263,0,-0.1741,-0.18,-0.1845,-0.1909,-0.1945,-0.2009,-0.2058,-0.2116,-0.2169,-0.2222,-0.2247,-0.2292,-0.2294,-0.2318,-0.2316,-0.2317,-0.2302,-0.2317,-0.2278,-0.2277,-0.2142,-0.2123,-0.2312,-0.2261,-0.2261,-0.226,-0.226,0,-0.173,-0.1777,-0.184,-0.1928,-0.195,-0.1998,-0.2083,-0.2132,-0.2204,-0.2245,-0.2285,-0.2313,-0.2333,-0.233,-0.2318,-0.2333,-0.2307,-0.2295,-0.2293,-0.2154,-0.2133,-0.224,-0.2256,-0.2257,-0.2257,-0.2257,-0.2257,0,-0.1676,-0.1768,-0.1822,-0.1853,-0.1958,-0.2004,-0.2061,-0.2142,-0.2183,-0.226,-0.2292,-0.2325,-0.2344,-0.233,-0.231,-0.2322,-0.2281,-0.229,-0.2132,-0.2122,-0.2257,-0.2257,-0.2258,-0.2258,-0.2259,-0.2259,-0.2259,0,-0.1644,-0.1689,-0.1809,-0.1837,-0.1901,-0.1985,-0.2054,-0.2114,-0.2195,-0.2223,-0.2298,-0.2306,-0.2348,-0.2334,-0.2309,-0.2201,-0.2274,-0.2115,-0.2093,-0.2266,-0.2267,-0.2255,-0.2255,-0.2257,-0.2257,-0.2258,-0.2258,0,-0.1569,-0.1651,-0.1718,-0.184,-0.1879,-0.1925,-0.2043,-0.2077,-0.2171,-0.2209,-0.2233,-0.2297,-0.2269,-0.2278,-0.2248,-0.2176,-0.2106,-0.2047,-0.2219,-0.221,-0.1953,-0.1955,-0.1861,-0.1855,-0.1851,-0.1847,-0.1843,0,-0.1532,-0.1563,-0.17,-0.1736,-0.1797,-0.1882,-0.1928,-0.2047,-0.2075,-0.2172,-0.2163,-0.2189,-0.2206,-0.2035,-0.2076,-0.1998,-0.1975,-0.1928,-0.1944,-0.1921,-0.191,-0.1919,-0.1927,-0.1836,-0.1835,-0.1834,-0.1832,0,-0.1453,-0.152,-0.1573,-0.1649,-0.1713,-0.177,-0.1846,-0.1852,-0.1962,-0.2075,-0.2019,-0.1991,-0.1953,-0.192,-0.1867,-0.182,-0.1958,-0.188,-0.1889,-0.1904,-0.189,-0.1885,-0.1899,-0.1816,-0.1818,-0.182,-0.1821,0,-0.1391,-0.1407,-0.1484,-0.1531,-0.1607,-0.1615,-0.168,-0.1696,-0.1738,-0.1849,-0.1823,-0.1851,-0.1919,-0.1825,-0.1781,-0.1719,-0.1697,-0.1643,-0.1665,-0.1683,-0.1649,-0.1608,-0.1406,0,0,0,0,0,-0.1316,-0.1314,-0.1352,-0.1395,-0.1462,-0.1496,-0.1596,-0.1662,-0.1776,-0.1681,-0.1744,-0.1697,-0.163,-0.1656,-0.155,-0.171,-0.1711,-0.1583,-0.1664,-0.1727,-0.1745,-0.1723,0,0,0,0,0,0,-0.1264,-0.1297,-0.1304,-0.126,-0.1256,-0.1307,-0.1358,-0.1441,-0.14,-0.1521,-0.1487,-0.1585,-0.1542,-0.1645,-0.1508,-0.1515,-0.1529,-0.1619,-0.1615,-0.1716,-0.1733,-0.1748,-0.1732,0,0,0,0,0]},{"header":{"parameterUnit":"m.s-1","parameterCategory":2,"la1":30.2991,"la2":30.254,"lo1":-89.0895,"lo2":-89.0444,"dy":0.0017,"dx":0.0017,"nx":28,"ny":28,"refTime":"2025-01-26T09:00:00:Z","depth":"4","parameterNumber":3,"parameterNumberName":"V-component_of_CURRENTS"},"data":[0,0,0,0,0,0,0,0,0,0,0,0,0,0,0,0,0,0,0,0,0,0,0,0,0,0,0,0,0,0,0,0,0,0,0,0,0,0,0,0,0,0,0,0,0,0,0,0,0,0,0,0,0,0,0,0,0,0,-0.0239,-0.0239,0,-0.0185,-0.0185,-0.0184,-0.014,-0.014,-0.014,-0.0139,-0.0057,-0.0056,-0.0054,0,0,0,0,0,0,0,0,0,0,0,0,0,-0.0269,-0.0269,-0.0239,-0.0239,-0.0238,-0.0185,-0.0185,-0.0184,-0.014,-0.014,-0.014,-0.0139,-0.0058,-0.0056,-0.0054,0,0,0,0,0,0,0,0,0,0,0,0,0,-0.0238,-0.0269,-0.0239,-0.0211,-0.0208,-0.0186,-0.0184,-0.0183,-0.014,-0.014,-0.0139,-0.0139,-0.0059,-0.0056,-0.0053,-0.0045,0,0,-0.0045,-0.0043,0,0,0,0,0,0,0,0,-0.024,-0.0237,-0.0216,-0.0213,-0.021,-0.017,-0.0165,-0.0136,-0.0141,-0.0165,-0.0139,-0.0139,-0.0094,-0.0088,-0.0077,-0.0042,-0.0038,-0.0044,-0.0043,-0.0041,-0.0041,0,0,0,0,0,0,0,-0.0242,-0.0239,-0.0216,-0.0215,-0.0212,-0.0189,-0.0184,-0.0159,-0.0131,-0.0163,-0.016,-0.0156,-0.0092,-0.008,-0.0075,-0.0037,-0.0044,-0.0042,-0.004,-0.0039,0.001,0.001,0,0,0,0,0,0,-0.0254,-0.0241,-0.0218,-0.0215,-0.0226,-0.0189,-0.0184,-0.0182,-0.0132,-0.0124,-0.0156,-0.0154,-0.0085,-0.0078,-0.0072,-0.0061,-0.0041,-0.0039,-0.0037,0.0011,0.001,0.001,0,0,0,0,0,0,-0.0255,-0.0253,-0.022,-0.0228,-0.0222,-0.019,-0.0188,-0.0181,-0.0172,-0.0128,-0.0119,-0.0154,-0.0085,-0.0076,-0.0055,-0.0057,-0.0038,-0.0035,0.0011,0.001,0.001,-0.0038,0,0,0,0,0,0,-0.0256,-0.0253,-0.026,-0.0229,-0.0222,-0.0215,-0.0188,-0.0181,-0.0171,-0.0167,-0.0123,-0.0114,-0.0084,-0.006,-0.0053,-0.0053,-0.0033,0.0012,0.0011,0.001,-0.0036,-0.004,-0.0044,0,0,0,0,0,-0.0258,-0.0269,-0.026,-0.0258,-0.0231,-0.0216,-0.0211,-0.0184,-0.0171,-0.0173,-0.0142,-0.0116,-0.0059,-0.0058,-0.0049,-0.0049,0.0012,0.0011,0.001,-0.0034,-0.0039,-0.0044,0,0,0,0,0,0,-0.0286,-0.0265,-0.0255,-0.0259,-0.0243,-0.0209,-0.021,-0.0191,-0.0168,-0.0165,-0.0121,-0.0111,-0.0096,-0.0068,-0.0068,-0.0038,-0.0019,-0.0018,-0.0056,-0.006,-0.0064,-0.0067,-0.003,0,0,0,0,0,-0.0296,-0.0299,-0.0274,-0.0279,-0.0273,-0.0243,-0.0235,-0.0218,-0.0192,-0.0181,-0.015,-0.0118,-0.0093,-0.0074,-0.0051,-0.0032,0.0006,-0.0027,-0.0031,-0.0034,-0.0031,0.0024,0.0026,0.0007,0.0007,0.0007,0,0,-0.031,-0.0299,-0.0301,-0.0286,-0.0271,-0.0269,-0.0237,-0.023,-0.0224,-0.0177,-0.0163,-0.0135,-0.0094,-0.0076,-0.0065,-0.005,-0.001,-0.0035,-0.0038,-0.0033,0.0023,0.0025,0.0027,0.0006,0.0006,0.0006,0,0,-0.0339,-0.0329,-0.034,-0.033,-0.0313,-0.0294,-0.0295,-0.0266,-0.0249,-0.0235,-0.02,-0.0171,-0.0136,-0.0099,-0.0077,-0.0088,-0.004,-0.0086,-0.0097,-0.0044,-0.0042,-0.0039,0.0004,0.0011,-0.0079,-0.0079,-0.0079,0,-0.0357,-0.0364,-0.0342,-0.0348,-0.0343,-0.0309,-0.0317,-0.0296,-0.0264,-0.0247,-0.024,-0.0176,-0.0143,-0.0104,-0.0108,-0.0095,-0.0062,-0.0083,-0.0048,-0.0045,-0.0042,0.0003,0.0011,-0.0082,-0.0081,-0.0081,-0.0081,0,-0.0388,-0.0395,-0.0402,-0.0397,-0.039,-0.0393,-0.0362,-0.0351,-0.0328,-0.0298,-0.0263,-0.0216,-0.0172,-0.0161,-0.0137,-0.0098,-0.0082,-0.0066,-0.0036,-0.0042,0.0005,0.0014,-0.0085,-0.0084,-0.0083,-0.0083,0,0,-0.0423,-0.0424,-0.0428,-0.0434,-0.0416,-0.0414,-0.0404,-0.0378,-0.0366,-0.0327,-0.0299,-0.0252,-0.0217,-0.019,-0.0152,-0.0104,-0.0055,-0.0079,-0.0075,-0.0035,0.0057,0.0034,0.0043,-0.0033,-0.0032,-0.0031,0.0077,0,-0.0454,-0.0482,-0.0468,-0.049,-0.05,-0.0467,-0.0461,-0.0431,-0.0396,-0.0361,-0.0295,-0.0262,-0.023,-0.0211,-0.0157,-0.0085,-0.0032,-0.0086,0.0057,0.0061,0.0043,0.0053,-0.0026,0.0085,0.0087,0.0088,0.009,0,-0.0485,-0.05,-0.0532,-0.0536,-0.0536,-0.0544,-0.0522,-0.051,-0.0447,-0.0416,-0.0358,-0.0305,-0.023,-0.0206,-0.007,-0.0108,-0.003,0.003,0.0036,0.0041,0.0056,0.0095,0.0108,0.0106,0.0105,0.0104,0.0102,0,-0.0521,-0.0542,-0.0571,-0.0574,-0.0573,-0.058,-0.0575,-0.053,-0.0517,-0.0448,-0.0426,-0.0326,-0.028,-0.0169,-0.0048,-0.0055,0.0104,0.0114,0.0172,0.0172,0.0182,0.0178,0.0219,0.0219,0.0219,0.0218,0.0218,0,-0.0552,-0.0577,-0.0597,-0.0614,-0.0648,-0.0626,-0.0641,-0.0616,-0.0573,-0.0554,-0.0461,-0.0419,-0.0269,-0.0161,-0.0048,0.0087,0.0111,0.0174,0.0201,0.0157,0.0149,0.0188,0.0183,0.0223,0.0222,0.0221,0.022,0,-0.0582,-0.0595,-0.0635,-0.0657,-0.0669,-0.0694,-0.0703,-0.0704,-0.0657,-0.0629,-0.0609,-0.0482,-0.0343,-0.0188,-0.0002,0.0077,0.0214,0.026,0.0199,0.0219,0.0248,0.0239,0.0334,0.0335,0.0335,0.0335,0.0335,0,-0.0597,-0.0623,-0.0679,-0.0714,-0.0732,-0.0764,-0.0785,-0.0755,-0.0747,-0.0665,-0.0648,-0.0513,-0.0415,-0.016,-0.0006,0.0212,0.0239,0.0305,0.0279,0.0245,0.0261,0.0252,0.0243,0.0335,0.0335,0.0335,0.0335,0,-0.0625,-0.0653,-0.0688,-0.0766,-0.081,-0.0846,-0.0866,-0.0866,-0.0817,-0.078,-0.0665,-0.0523,-0.0362,-0.0166,0.0004,0.0158,0.0256,0.0307,0.0307,0.0284,0.0247,0.0261,0.0252,0.0336,0.0336,0.0336,0.0336,0,-0.0646,-0.0685,-0.0742,-0.0802,-0.0867,-0.0904,-0.0911,-0.0882,-0.0859,-0.0758,-0.0723,-0.0534,-0.0419,-0.0192,-0.0037,0.011,0.0142,0.0179,0.0187,0.0188,0.0105,0.0035,0.0086,0,0,0,0,0,-0.0658,-0.0703,-0.0771,-0.0838,-0.0904,-0.0933,-0.0951,-0.094,-0.0896,-0.0821,-0.0765,-0.0608,-0.036,-0.0244,-0.01,-0.0052,0.015,0.0118,0.0192,0.0338,0.0338,0.0263,0,0,0,0,0,0,-0.0667,-0.0735,-0.077,-0.0851,-0.0901,-0.0959,-0.0972,-0.0944,-0.0883,-0.082,-0.068,-0.0591,-0.0345,-0.0442,-0.0102,-0.0057,0.0004,0.0243,0.0245,0.0339,0.0338,0.0338,0.026,0,0,0,0,0]}]]